[Date Prev][Date Next][Thread Prev][Thread Next] - [Date Index][Thread Index][Author Index]

2 Line ISS Keps 12-25



ISS
1 25544U 98067A   03359.35308568  .00020454  00000-0  20152-3 0  9301
2 25544  51.6289 135.1859 0006092 296.5818 166.6337 15.65921419290894



----
Via the sarex mailing list at AMSAT.ORG courtesy of AMSAT-NA.
To unsubscribe, send "unsubscribe sarex" to Majordomo@amsat.org



AMSAT Top AMSAT Home